Regional Weather Roundup
Issued by NWS

Home | Current Version | Previous Version | Text Only | Print | Product List | Glossary On
Versions: 1 2 3 4 5 6 7 8 9 10 11 12 13 14 15 16 17 18 19 20 21 22 23 24 25 26 27 28 29 30 31 32 33 34 35 36 37 38 39 40 41 42 43 44 45 46 47 48 49 50
000
ASUS44 KFWD 250915
RWRTX
NORTH TEXAS HOURLY WEATHER ROUNDUP
NATIONAL WEATHER SERVICE FORT WORTH TX
400 AM CDT WED MAY 25 2016

NOTE: "FAIR" INDICATES FEW OR NO CLOUDS BELOW 12,000 FEET WITH NO
SIGNIFICANT WEATHER AND/OR OBSTRUCTIONS TO VISIBILITY.

TXZ118-119-251000-
DALLAS/FORT WORTH METROPLEX

CITY           SKY/WX    TMP DP  RH WIND       PRES   REMARKS
DFW AIRPORT    CLOUDY    78  70  76 S17G23    29.92S
DALLAS LOVE    CLOUDY    78  71  79 S14       29.93R
FTW MEACHAM      N/A     79  70  74 S17G28    29.91R
DAL-EXECUTIVE  CLOUDY    77  70  79 S8G20     29.93S
FTW-ALLIANCE   CLOUDY    77  70  79 S10G21    29.91S
FTW-NAS-JRB    CLOUDY    78  70  76 S15G26    29.92R
FTW-SPINKS     CLOUDY    77  70  79 S13G23    29.93S HAZE
ARLINGTON      CLOUDY    80  71  74 S13       29.92S
GRAND PRAIRIE  MOCLDY    77  70  78 S12G17    29.94S
ADDISON        CLOUDY    78  73  83 S15G21    29.95R
MESQUITE       MOCLDY    76  73  88 S10       29.94S
LANCASTER      CLOUDY    76  69  79 S13       29.95S
$$

TXZ091>094-102>105-117-120-121-131>134-251000-
NORTH CENTRAL TEXAS

CITY           SKY/WX    TMP DP  RH WIND       PRES   REMARKS
SHRMAN/DENISON PTCLDY    74  66  78 S14       29.92R
GAINESVILLE    PTCLDY    75  70  84 S16G22    29.92S
BOWIE          CLOUDY    75  71  86 SE12G18   29.88S
DECATUR        PTCLDY    76  70  83 S16G22    29.92S
DENTON         LGT RAIN  77  70  79 S20G30    29.92R
MCKINNEY       MOCLDY    77  72  84 S15       29.93R
GREENVILLE     PTCLDY    77  70  78 S13G20    29.94S
ROCKWALL       CLOUDY    76  73  88 S10G22    29.93R
TERRELL        CLOUDY    76  72  87 S10       29.95S
WAXAHACHIE     CLOUDY    75  72  90 S10       29.95F
CLEBURNE       CLOUDY    75  75 100 S14       29.95R
GRANBURY       CLOUDY    78  71  79 SE10G17   29.92S
$$

TXZ083>090-098>101-113>116-127>130-139>142-154-155-251000-
WESTERN NORTH TEXAS

CITY           SKY/WX    TMP DP  RH WIND       PRES   REMARKS
WICHITA FALLS  CLEAR     75  72  90 S16       29.84S
WF-KICKAPOO    PTCLDY    76  72  86 S12       29.87R
VERNON         CLEAR     75  69  82 S15       29.84S
ABILENE        CLOUDY    76  71  85 S20G26    29.89F
ABILENE-DYESS  CLOUDY    75  66  72 S20G28    29.86S
BRECKENRIDGE   MOCLDY    77  71  82 S17       29.88S
GRAHAM         MOCLDY    76  74  92 SE9       29.86S
MINERAL WELLS  CLOUDY    77  71  82 S12       29.89S
STEPHENVILLE   CLOUDY    75  70  84 S8        29.95S
COMANCHE       PTCLDY    73  73 100 S9        29.93F
COLEMAN        CLOUDY    75  71  89 S6        29.93S
$$

TXZ143>147-156>162-174-175-251000-
CENTRAL TEXAS

CITY           SKY/WX    TMP DP  RH WIND       PRES   REMARKS
WACO           CLOUDY    77  71  82 S14       29.94S
WACO-MCGREGOR  MOCLDY    75  73  93 S10       29.94F
HILLSBORO      CLOUDY    74  72  91 SE12G17   29.94S
CORSICANA      CLOUDY    78  71  79 S10       29.97R
MEXIA          CLOUDY    75  73  91 SE12      29.95F
HEARNE         CLOUDY    77  74  92 SE6       29.96F
CAMERON        CLOUDY    77  74  88 S8        29.95S
TEMPLE         CLOUDY    76  73  91 S13       29.96R
KILLEEN        CLOUDY    75  72  90 SE10      29.95R
KILLEEN-SKYLRK CLOUDY    76  73  91 S12       29.95F
FORT HOOD      CLOUDY    74  73  96 S8        29.93F
GATESVILLE     MOCLDY    75  72  88 S7        29.97S
HAMILTON       CLOUDY    75  74  95 S14G20    29.95S
LAMPASAS       CLOUDY    76  73  90 S7        29.95S
$$

TXZ095>097-106>112-122>126-135>138-148>153-164>167-251000-
EAST TEXAS

CITY           SKY/WX    TMP DP  RH WIND       PRES   REMARKS
PARIS          CLOUDY    75  64  69 S9G16     29.96R
SULPHUR SPRNGS CLEAR     76  71  82 S8        29.96R
MOUNT PLEASANT CLOUDY    76  70  81 S7        29.99R
GILMER         CLOUDY    75  70  83 SE8       29.96F
MINEOLA        MOCLDY    77  72  83 S13       29.95F
TYLER          CLOUDY    77  70  79 S10       29.96S
LONGVIEW       PTCLDY    75  71  87 SE13      29.96F
MARSHALL       CLOUDY    75  72  88 S7        30.01R
ATHENS         CLOUDY    75  72  88 S10       29.96S
PALESTINE      CLOUDY    77  73  87 SE9       29.98S
JACKSONVILLE   MOCLDY    75  72  91 S12G18    29.99F
HENDERSON      CLOUDY    75  71  85 S10       29.98F
CENTER         CLOUDY    78  75  90 S8        30.01R
NACOGDOCHES    CLOUDY    75  72  88 S8        29.98S
LUFKIN         CLOUDY    76  72  87 S8        29.98F
$$

SUPPLEMENTAL OBSERVATIONS (CENTRAL)

CITY           SKY/WX    TMP DP  RH WIND       PRES   REMARKS
LAKE TEXOMA      N/A     79  72  78 S9          N/A
CADDO GRASSLND   N/A     75  70  83 S9G20       N/A
PAT MAYSE LAKE   N/A     75  72  88 SE14        N/A
GREENVILLE       N/A     75  70  83 S10G18      N/A
CEDAR HILL       N/A     77  72  83 S12G21      N/A
ATHENS           N/A     77  72  83 S12         N/A
LAKE LIMESTONE   N/A     77  73  88 S6G14       N/A
MCGREGOR         N/A     75  72  88 S12         N/A
TEMPLE           N/A     75  70  83 SE7         N/A
$$

SUPPLEMENTAL OBSERVATIONS (WEST)

CITY           SKY/WX    TMP DP  RH WIND       PRES   REMARKS
POSSUM KINGDOM   N/A     75  72  88 S8          N/A
LBJ GRASSLAND    N/A     75  70  83 S12         N/A
GRANBURY         N/A     77  72  83 S13         N/A
COMANCHE         N/A     73  70  88 S9          N/A
HAMBY            N/A     75  70  83 S17G25      N/A
IVIE RESERVOIR   N/A     75  72  88 CALM        N/A
COLORADO BEND    N/A     73  70  88 SW8G17      N/A
$$

SUPPLEMENTAL OBSERVATIONS (EAST)

CITY           SKY/WX    TMP DP  RH WIND       PRES   REMARKS
TEXARKANA        N/A     75  72  88 S3          N/A
LINDEN           N/A     75  72  88 S2          N/A
GILMER           N/A     75  70  83 S8G16       N/A
HENDERSON        N/A     75  70  83 S7          N/A
LUFKIN           N/A     75  72  88 MISG        N/A
N SABINE NF      N/A     75  70  83 MISG        N/A
$$

SUPPLEMENTAL OBSERVATIONS ARE A COLLECTION OF AUTOMATED INSTRUMENTS
THAT ARE MAINTAINED BY A VARIETY OF FEDERAL AND STATE AGENCIES.
CERTAIN ELEMENTS...SUCH AS HUMIDITY VALUES AND SUSTAINED WIND
SPEEDS...MAY BE APPROXIMATED.





USA.gov is the U.S. government's official web portal to all federal, state and local government web resources and services.